Location: 81360 Arifat, France
(43.7204°N, 2.3408°E)
Time: 00:39:12
(UTC+01:00)

Courier 1B - Pass Details

Date: 08 December 2025
Orbit: 962 x 1208 km, 28.3° (Epoch: 15 January)

Event Time Altitude Azimuth Distance (km) Brightness Sun altitude
Exits shadow 06:08:37 11° 220° (SW) 2,693 9.5 -21.4°
Maximum altitude 06:11:01 13° 198° (SSW) 2,559 9.6 -21.0°
Drops below altitude 10° 06:13:51 10° 173° (S) 2,802 10.1 -20.5°
Sets 06:18:22 0° 147° (SSE) 3,811 11.3 -19.7°
